Change the Weather History Date:

Thursday, August 21, 2014

  Actual Average (LHBP) Record (LHBP)
Temperature  
Mean Temperature 64 °F -  
Max Temperature 72 °F 78 °F 96 °F (2012)
Min Temperature 55 °F 57 °F 53 °F (2011)
Degree Days  
Heating Degree Days 2    
Growing Degree Days 14 (Base 50)    
Moisture  
Dew Point 59 °F    
Average Humidity 85    
Maximum Humidity 100    
Minimum Humidity 50    
Precipitation  
Precipitation 0.00 in - - ()
Sea Level Pressure  
Sea Level Pressure 29.96 in    
Wind  
Wind Speed 5 mph ()    
Max Wind Speed 16 mph    
Max Gust Speed 31 mph    
Visibility 9.7 miles    
Events Rain , Thunderstorm    
Averages and records for this station are not official NWS values.
T = Trace of Precipitation, MM = Missing Value Source: Averaged Metar Reports

Daily Weather History Graph

Daily Weather History Graph

Search for Another Location

Airport or City:

Trip Planner

Search our weather history database for the weather conditions in past years. The results will help you decide how hot, cold, wet, or windy it might be!

Date:

Astronomy

Aug. 21, 2014 Rise Set
Actual Time 5:43 AM CEST 7:40 PM CEST
Civil Twilight 5:10 AM CEST 8:12 PM CEST
Nautical Twilight 4:30 AM CEST 8:52 PM CEST
Astronomical Twilight 3:45 AM CEST 9:37 PM CEST
Moon 1:51 AM CEST (8/21) 5:02 PM CEST (8/21)
Length of Visible Light 15h 02m
Length of Day
13h 56m
Waning Crescent, 15% of the Moon is Illuminated
Aug 21
Waning Crescent
Aug 25
New
Sep 2
First Quarter
Sep 9
Full
Sep 16
Last Quarter

Hourly Weather History & Observations

Time (CEST) Temp. Dew Point Humidity Pressure Visibility Wind Dir Wind Speed Gust Speed Precip Events Conditions
12:00 AM 64 °F 63 °F 94% 29.96 in 12 mi North 4.5 mph - -   Mostly Cloudy
12:15 AM 64.4 °F 62.6 °F 94% 29.95 in - NNW 2.2 mph - N/A   Clear
12:45 AM 62.6 °F 62.6 °F 100% 29.95 in - NNW 4.5 mph - N/A   Clear
1:00 AM 63 °F 62 °F 96% 29.95 in 19 mi NNW 4.5 mph - -   Mostly Cloudy
1:15 AM 62.6 °F 62.6 °F 100% 29.95 in - North 2.2 mph - N/A   Clear
1:45 AM 62.6 °F 60.8 °F 94% 29.95 in - North 4.5 mph - N/A   Clear
2:00 AM 54 °F 54 °F 99% 30.08 in 9 mi Calm Calm - -  
2:15 AM 62.6 °F 60.8 °F 94% 29.95 in - NNW 2.2 mph - N/A   Clear
2:45 AM 60.8 °F 60.8 °F 100% 29.92 in - North 2.2 mph - N/A   Clear
3:00 AM 61 °F 61 °F 99% 29.94 in 9 mi North 2.2 mph - -   Partly Cloudy
3:15 AM 60.8 °F 60.8 °F 100% 29.92 in - North 4.5 mph - N/A   Clear
3:45 AM - - N/A% - 6.2 mi Variable 4.5 mph - N/A   Mostly Cloudy
4:00 AM 62 °F 61 °F 96% 29.93 in 9 mi NE 2.2 mph - -   Overcast
4:15 AM 62.6 °F 60.8 °F 94% 29.92 in - ENE 2.2 mph - N/A   Clear
4:45 AM 62.6 °F 60.8 °F 94% 29.92 in - Calm Calm - N/A   Clear
5:00 AM 62 °F 61 °F 94% 29.92 in 9 mi Calm Calm - -   Overcast
5:45 AM 60.8 °F 60.8 °F 100% 29.89 in 6.2 mi ENE 4.5 mph - N/A   Overcast
6:00 AM 62 °F 61 °F 95% 29.91 in 6 mi ENE 4.5 mph - -   Overcast
6:15 AM 62.6 °F 60.8 °F 94% 29.89 in 6.2 mi ENE 4.5 mph - N/A   Mostly Cloudy
6:45 AM 62.6 °F 62.6 °F 100% 29.89 in 3.7 mi ENE 6.7 mph - N/A Rain , Thunderstorm Light Thunderstorms and Rain
7:00 AM 63 °F 62 °F 94% 29.89 in 4 mi ENE 6.7 mph - - Rain , Thunderstorm Thunderstorms and Rain
7:03 AM 62.6 °F 60.8 °F 94% 29.95 in 1.9 mi West 13.4 mph 31.3 mph N/A Rain , Thunderstorm Thunderstorms and Rain
7:15 AM 59.0 °F 59.0 °F 100% 29.92 in 0.9 mi West 13.4 mph 31.3 mph N/A Rain , Thunderstorm Thunderstorms and Rain
7:45 AM 59.0 °F 59.0 °F 100% 29.89 in 6.2 mi North 2.2 mph - N/A Rain Light Rain Showers
8:00 AM 59 °F 59 °F 100% 29.91 in 6 mi North 2.2 mph - - Rain Light Rain Showers
8:15 AM 60.8 °F 60.8 °F 100% 29.89 in 6.2 mi Calm Calm - N/A   Mostly Cloudy
8:45 AM 60.8 °F 60.8 °F 100% 29.92 in 6.2 mi South 2.2 mph - N/A   Mostly Cloudy
9:00 AM 62 °F 61 °F 94% 29.92 in 12 mi South 2.2 mph - - Rain Light Rain Showers
9:15 AM 62.6 °F 60.8 °F 94% 29.92 in 6.2 mi SW 4.5 mph - N/A Rain Light Rain Showers
9:45 AM - - N/A% - 6.2 mi WSW 6.7 mph - N/A   Overcast
10:00 AM 63 °F 62 °F 95% 29.93 in 12 mi WSW 2.2 mph - - Rain Light Rain Showers
10:15 AM 62.6 °F 62.6 °F 100% 29.92 in 6.2 mi WSW 6.7 mph - N/A   Mostly Cloudy
10:45 AM 64.4 °F 62.6 °F 94% 29.92 in 6.2 mi WSW 4.5 mph - N/A   Mostly Cloudy
11:00 AM 64 °F 63 °F 95% 29.93 in 9 mi WSW 4.5 mph - -   Partly Cloudy
11:15 AM 64.4 °F 62.6 °F 94% 29.95 in 6.2 mi WSW 11.2 mph - N/A   Mostly Cloudy
12:00 PM 65 °F 62 °F 89% 29.94 in 19 mi West 8.9 mph - -   Mostly Cloudy
12:15 PM 64.4 °F 62.6 °F 94% 29.95 in 6.2 mi West 11.2 mph - N/A   Mostly Cloudy
12:45 PM - - N/A% - 6.2 mi WNW 11.2 mph - N/A   Mostly Cloudy
1:00 PM 66 °F 62 °F 81% 29.95 in 19 mi West 11.2 mph - -   Mostly Cloudy
1:15 PM 68.0 °F 60.8 °F 78% 29.95 in 6.2 mi WSW 8.9 mph - N/A   Scattered Clouds
1:45 PM 68.0 °F 60.8 °F 78% 29.95 in 6.2 mi West 13.4 mph - N/A   Scattered Clouds
2:00 PM 68 °F 60 °F 68% 29.97 in 19 mi West 13.4 mph - -   Partly Cloudy
2:15 PM 68.0 °F 57.2 °F 68% 29.95 in 6.2 mi West 13.4 mph 26.8 mph N/A   Scattered Clouds
2:45 PM 68.0 °F 57.2 °F 68% 29.95 in 6.2 mi WNW 13.4 mph - N/A   Mostly Cloudy
3:00 PM 68 °F 58 °F 61% 29.96 in 19 mi WNW 13.4 mph - -   Partly Cloudy
3:15 PM 68.0 °F 57.2 °F 68% 29.95 in 6.2 mi West 15.7 mph - N/A   Mostly Cloudy
3:45 PM - - N/A% - 6.2 mi WNW 11.2 mph - N/A   Mostly Cloudy
4:00 PM 70 °F 57 °F 55% 29.95 in 19 mi WNW 13.4 mph - -   Partly Cloudy
4:15 PM 71.6 °F 57.2 °F 60% 29.95 in 6.2 mi WNW 11.2 mph - N/A   Scattered Clouds
4:45 PM 69.8 °F 55.4 °F 60% 29.95 in 6.2 mi NW 13.4 mph - N/A   Scattered Clouds
5:00 PM 70 °F 56 °F 52% 29.96 in 19 mi NW 13.4 mph - -   Partly Cloudy
5:15 PM 69.8 °F 55.4 °F 60% 29.98 in 6.2 mi NW 11.2 mph - N/A   Scattered Clouds
5:45 PM 69.8 °F 55.4 °F 60% 29.98 in 6.2 mi NW 6.7 mph - N/A   Scattered Clouds
6:00 PM 70 °F 55 °F 50% 29.97 in 19 mi NW 6.7 mph - -   Partly Cloudy
6:15 PM 69.8 °F 55.4 °F 60% 29.98 in - NW 11.2 mph - N/A   Clear
6:45 PM - - N/A% - - WNW 6.7 mph - N/A   Clear
7:00 PM 69 °F 55 °F 51% 29.98 in 19 mi WNW 6.7 mph - -   Scattered Clouds
7:15 PM 68.0 °F 55.4 °F 64% 29.98 in - NW 4.5 mph - N/A   Clear
7:45 PM 60.8 °F 55.4 °F 82% 30.01 in - ENE 13.4 mph - N/A   Clear
8:00 PM 62 °F 56 °F 73% 30.01 in 19 mi ENE 13.4 mph - -   Scattered Clouds
8:15 PM 60.8 °F 55.4 °F 82% 30.01 in - NE 8.9 mph - N/A   Clear
8:45 PM 59.0 °F 53.6 °F 82% 30.04 in - ENE 6.7 mph - N/A   Clear
9:00 PM 58 °F 54 °F 84% 30.05 in 19 mi ENE 6.7 mph - -  
9:15 PM 57.2 °F 53.6 °F 88% 30.04 in - ENE 4.5 mph - N/A   Clear
9:45 PM - - N/A% - 3.1 mi NNE 6.7 mph - N/A   Clear
10:00 PM 58 °F 54 °F 83% 30.07 in 19 mi ENE 6.7 mph - -   Clear
10:15 PM 55.4 °F 53.6 °F 94% 30.06 in - NE 4.5 mph - N/A   Clear
10:45 PM 55.4 °F 53.6 °F 94% 30.06 in - NE 4.5 mph - N/A   Clear
11:00 PM 56 °F 54 °F 91% 30.08 in 19 mi NE 4.5 mph - -   Clear
11:45 PM 55.4 °F 53.6 °F 94% 30.06 in 6.2 mi Calm Calm - N/A   Partly Cloudy